Date String (YYYY-MM-DD hh:mm:ss) UTC,Instrument flags,absolute air pressure of the measurement (hPa),sample flow rate (lpm),inlet stack bypass flow (lpm),air temperature of the measurement (°C),ambient temperature measured by the external sensor (°C),aerosol sample conditioner tube jacket temperature (°C),OPC LED temperature (°C),internal box temperature (°C),relative humidity of the measurement (%),span deviation,mass concentration of particles derived from Lorenz-Mie calculation of OPC scattering (μg/m³),mass concentration of particles derived from Lorenz-Mie calculation of OPC scattering (μg/m³),mass concentration of particles derived from Lorenz-Mie calculation of OPC scattering (μg/m³)
DateTimeUTC,F1_M11,P_M11,Q1_M11,Q2_M11,T1_M11,T2_M11,T3_M11,T4_M11,T5_M11,U1_M11,ZSPAN_M11,X0_M11,X2_M11,X1_M11
2024-03-25 02:00:00,SystemResetWarning,0812.6,5.00,000.00,020.2,019.1,000.0,029.0,022.0,19.1,0000.0,0007.29,0004.92,0004.77
2024-03-25 02:01:00,SystemResetWarning,0812.6,4.99,000.00,020.2,019.1,000.0,029.0,022.0,19.0,0000.0,0007.26,0004.91,0004.76
2024-03-25 02:02:00,SystemResetWarning,0812.7,4.99,000.00,020.1,019.1,000.0,029.0,022.0,19.0,0000.0,0007.30,0004.91,0004.74
2024-03-25 02:03:00,SystemResetWarning,0812.8,5.00,000.00,020.1,019.1,000.0,029.0,022.0,19.0,0000.0,0007.28,0004.89,0004.73
2024-03-25 02:04:00,SystemResetWarning,0812.8,5.00,000.00,020.1,019.1,000.0,028.9,022.0,19.0,0000.0,0007.13,0004.84,0004.70
2024-03-25 02:05:00,SystemResetWarning,0812.8,5.01,000.00,020.1,019.1,000.0,028.9,022.0,19.0,0000.0,0007.06,0004.83,0004.68
2024-03-25 02:06:00,SystemResetWarning,0812.8,5.01,000.00,020.1,019.1,000.0,028.9,022.0,19.0,0000.0,0007.18,0004.81,0004.66
2024-03-25 02:07:00,SystemResetWarning,0812.8,5.00,000.00,020.1,019.1,000.0,028.9,021.9,19.0,0000.0,0007.37,0004.77,0004.62
2024-03-25 02:08:00,SystemResetWarning,0812.8,5.00,000.00,020.1,019.0,000.0,028.9,021.9,18.9,0000.0,0007.31,0004.72,0004.58
2024-03-25 02:09:00,SystemResetWarning,0812.9,5.00,000.00,020.1,019.0,000.0,028.9,021.9,18.9,0000.0,0007.24,0004.68,0004.55
2024-03-25 02:10:00,SystemResetWarning,0812.9,5.00,000.00,020.1,019.0,000.0,028.9,021.9,18.9,0000.0,0007.26,0004.67,0004.53
2024-03-25 02:11:00,SystemResetWarning,0812.9,5.00,000.00,020.1,019.0,000.0,028.9,021.9,18.9,0000.0,0007.21,0004.64,0004.49
2024-03-25 02:12:00,SystemResetWarning,0812.9,5.00,000.00,020.0,019.0,000.0,028.8,021.9,18.9,0000.0,0007.19,0004.61,0004.45
2024-03-25 02:13:00,SystemResetWarning,0812.9,5.00,000.00,020.0,019.0,000.0,028.8,021.9,18.9,0000.0,0007.03,0004.56,0004.41
2024-03-25 02:14:00,SystemResetWarning,0813.0,5.00,000.00,020.0,019.0,000.0,028.8,021.9,18.9,0000.0,0006.95,0004.52,0004.38
2024-03-25 02:15:00,SystemResetWarning,0813.0,5.00,000.00,020.0,019.0,000.0,028.8,021.8,18.9,0000.0,0006.97,0004.51,0004.35
2024-03-25 02:16:00,SystemResetWarning,0813.0,5.00,000.00,020.0,019.0,000.0,028.8,021.8,18.9,0000.0,0006.92,0004.49,0004.33
2024-03-25 02:17:00,SystemResetWarning,0813.0,5.00,000.00,020.0,018.9,000.0,028.8,021.8,18.9,0000.0,0006.83,0004.46,0004.30
2024-03-25 02:18:00,SystemResetWarning,0813.0,4.99,000.00,020.0,018.9,000.0,028.8,021.8,18.9,0000.0,0006.40,0004.44,0004.27
2024-03-25 02:19:00,SystemResetWarning,0813.0,4.99,000.00,019.9,018.9,000.0,028.8,021.8,18.9,0000.0,0006.39,0004.43,0004.26
2024-03-25 02:20:00,SystemResetWarning,0813.0,5.00,000.00,019.9,018.9,000.0,028.8,021.8,18.9,0000.0,0006.42,0004.43,0004.25
2024-03-25 02:21:00,SystemResetWarning,0813.0,5.00,000.00,019.9,018.9,000.0,028.7,021.8,18.9,0000.0,0006.42,0004.42,0004.24
2024-03-25 02:22:00,SystemResetWarning,0813.0,5.00,000.00,019.9,018.9,000.0,028.7,021.8,18.9,0000.0,0006.34,0004.39,0004.23
2024-03-25 02:23:00,SystemResetWarning,0813.0,5.00,000.00,019.9,018.9,000.0,028.7,021.8,18.9,0000.0,0006.30,0004.38,0004.22
2024-03-25 02:24:00,SystemResetWarning,0813.0,5.00,000.00,019.9,018.9,000.0,028.7,021.8,18.9,0000.0,0006.33,0004.38,0004.22
2024-03-25 02:25:00,SystemResetWarning,0813.0,5.00,000.00,019.9,018.9,000.0,028.7,021.8,18.9,0000.0,0006.33,0004.38,0004.22
2024-03-25 02:26:00,SystemResetWarning,0813.0,5.00,000.00,019.9,018.9,000.0,028.7,021.7,18.9,0000.0,0006.25,0004.35,0004.21
2024-03-25 02:27:00,SystemResetWarning,0813.0,5.01,000.00,019.9,018.9,000.0,028.7,021.7,18.9,0000.0,0006.33,0004.35,0004.21
2024-03-25 02:28:00,SystemResetWarning,0813.0,5.00,000.00,019.9,018.8,000.0,028.7,021.7,18.9,0000.0,0006.45,0004.38,0004.22
2024-03-25 02:29:00,SystemResetWarning,0813.0,5.00,000.00,019.9,018.8,000.0,028.6,021.7,18.9,0000.0,0006.62,0004.38,0004.23
2024-03-25 02:30:00,SystemResetWarning,0813.0,5.00,000.00,019.8,018.8,000.0,028.6,021.7,18.9,0000.0,0006.60,0004.37,0004.23
2024-03-25 02:31:00,SystemResetWarning,0813.0,5.00,000.00,019.8,018.8,000.0,028.6,021.7,18.9,0000.0,0006.55,0004.36,0004.23
2024-03-25 02:32:00,SystemResetWarning,0813.0,5.00,000.00,019.8,018.8,000.0,028.6,021.7,18.9,0000.0,0006.47,0004.34,0004.22
2024-03-25 02:33:00,SystemResetWarning,0813.0,5.00,000.00,019.8,018.8,000.0,028.6,021.7,18.9,0000.0,0006.51,0004.35,0004.22
2024-03-25 02:34:00,SystemResetWarning,0813.0,4.99,000.00,019.8,018.8,000.0,028.6,021.7,18.9,0000.0,0006.45,0004.34,0004.21
2024-03-25 02:35:00,SystemResetWarning,0813.0,4.99,000.00,019.8,018.8,000.0,028.6,021.6,18.9,0000.0,0006.47,0004.32,0004.19
2024-03-25 02:36:00,SystemResetWarning,0813.1,5.00,000.00,019.8,018.8,000.0,028.6,021.6,18.9,0000.0,0006.81,0004.31,0004.18
2024-03-25 02:37:00,SystemResetWarning,0813.1,5.00,000.00,019.8,018.8,000.0,028.6,021.6,18.9,0000.0,0007.19,0004.30,0004.16
2024-03-25 02:38:00,SystemResetWarning,0813.2,5.00,000.00,019.8,018.8,000.0,028.6,021.6,18.9,0000.0,0007.99,0004.30,0004.16
2024-03-25 02:39:00,SystemResetWarning,0813.2,5.00,000.00,019.7,018.7,000.0,028.5,021.6,18.9,0000.0,0007.94,0004.28,0004.15
2024-03-25 02:40:00,SystemResetWarning,0813.2,5.01,000.00,019.7,018.7,000.0,028.5,021.6,18.9,0000.0,0007.91,0004.31,0004.17
2024-03-25 02:41:00,SystemResetWarning,0813.2,5.00,000.00,019.7,018.7,000.0,028.5,021.5,18.9,0000.0,0007.87,0004.32,0004.17
2024-03-25 02:42:00,SystemResetWarning,0813.2,5.00,000.00,019.7,018.7,000.0,028.5,021.5,18.9,0000.0,0007.92,0004.31,0004.15
2024-03-25 02:43:00,SystemResetWarning,0813.3,5.00,000.00,019.7,018.7,000.0,028.5,021.5,18.9,0000.0,0007.98,0004.30,0004.13
2024-03-25 02:44:00,SystemResetWarning,0813.3,5.00,000.00,019.7,018.7,000.0,028.5,021.5,18.9,0000.0,0007.91,0004.25,0004.09
2024-03-25 02:45:00,SystemResetWarning,0813.3,4.99,000.00,019.7,018.6,000.0,028.5,021.5,18.9,0000.0,0007.88,0004.23,0004.08
2024-03-25 02:46:00,SystemResetWarning,0813.3,5.00,000.00,019.6,018.6,000.0,028.5,021.5,18.9,0000.0,0007.93,0004.24,0004.07
2024-03-25 02:47:00,SystemResetWarning,0813.4,5.00,000.00,019.6,018.6,000.0,028.5,021.4,18.9,0000.0,0007.71,0004.21,0004.05
2024-03-25 02:48:00,SystemResetWarning,0813.4,5.00,000.00,019.6,018.6,000.0,028.4,021.4,18.8,0000.0,0007.53,0004.21,0004.05
2024-03-25 02:49:00,SystemResetWarning,0813.4,5.00,000.00,019.6,018.5,000.0,028.4,021.4,18.8,0000.0,0006.45,0004.18,0004.03
2024-03-25 02:50:00,SystemResetWarning,0813.5,5.00,000.00,019.6,018.5,000.0,028.4,021.4,18.7,0000.0,0006.91,0004.16,0004.02
2024-03-25 02:51:00,SystemResetWarning,0813.5,5.00,000.00,019.6,018.5,000.0,028.4,021.4,18.7,0000.0,0006.89,0004.13,0003.97
2024-03-25 02:52:00,SystemResetWarning,0813.5,5.00,000.00,019.5,018.5,000.0,028.4,021.3,18.7,0000.0,0007.19,0004.11,0003.94
2024-03-25 02:53:00,SystemResetWarning,0813.6,5.00,000.00,019.5,018.4,000.0,028.4,021.3,18.7,0000.0,0007.33,0004.10,0003.92
2024-03-25 02:54:00,SystemResetWarning,0813.6,5.00,000.00,019.5,018.4,000.0,028.4,021.3,18.7,0000.0,0007.29,0004.09,0003.92
2024-03-25 02:55:00,SystemResetWarning,0813.7,4.99,000.00,019.5,018.3,000.0,028.3,021.3,18.7,0000.0,0007.58,0004.11,0003.93
2024-03-25 02:56:00,SystemResetWarning,0813.7,4.99,000.00,019.4,018.3,000.0,028.3,021.2,18.7,0000.0,0007.61,0004.12,0003.93
2024-03-25 02:57:00,SystemResetWarning,0813.8,5.00,000.00,019.4,018.3,000.0,028.3,021.2,18.6,0000.0,0007.56,0004.12,0003.93
2024-03-25 02:58:00,SystemResetWarning,0813.9,5.00,000.00,019.4,018.3,000.0,028.3,021.2,18.6,0000.0,0007.59,0004.14,0003.94
2024-03-25 02:59:00,SystemResetWarning,0813.9,5.00,000.00,019.4,018.2,000.0,028.3,021.2,18.6,0000.0,0007.62,0004.15,0003.94
